Location: Unspecified
(45.3999°N, 88.1269°W)
Time: 02:46:55
(UTC-05:00)

Resurs 1-4 Rocket - Visible Passes

Search period start: 17 October 2017 00:00
Search period end: 27 October 2017 00:00
Orbit: 800 x 813 km, 98.5° (Epoch: 16 October)

Date Brightness Start Highest point End Pass type
(mag) Time Alt. Az. Time Alt. Az. Time Alt. Az.
17 Oct 4.3 04:01:14 10° N 04:02:15 15° N 04:02:15 15° N visible
18 Oct 4.5 03:36:27 10° N 03:37:16 15° N 03:37:16 15° N visible
19 Oct 4.8 03:11:49 10° NNE 03:12:16 13° NNE 03:12:16 13° NNE visible
19 Oct 4.4 04:53:09 10° NNW 04:53:21 11° NNW 04:53:21 11° NNW visible
20 Oct 4.4 04:27:49 10° N 04:28:22 12° NNW 04:28:22 12° NNW visible
21 Oct 4.5 04:02:49 10° N 04:03:23 13° N 04:03:23 13° N visible
22 Oct 4.7 03:38:01 10° N 03:38:24 12° N 03:38:24 12° N visible
23 Oct 5.0 03:13:23 10° NNE 03:13:25 10° NNE 03:13:25 10° NNE visible
24 Oct 4.6 04:29:26 10° N 04:29:30 10° N 04:29:30 10° N visible
25 Oct 4.7 04:04:25 10° N 04:04:31 10° N 04:04:31 10° N visible
